Location: Strawberry
(45.6646°N, 111.9596°W)
Time: 19:38:27
(UTC+00:00)

Vanguard 1 Rocket - Pass Details

Date: 08 October 2022
Orbit: 650 x 4225 km, 34.3° (Epoch: 01 December)

Event Time Altitude Azimuth Distance (km) Brightness Sun altitude
Rises 21:45:51 0° 183° (S) 8,134 12.9 28.3°
Reaches altitude 10° 21:54:45 10° 167° (SSE) 7,377 12.5 27.2°
Maximum altitude 22:08:50 18° 134° (SE) 6,602 11.8 25.4°
Drops below altitude 10° 22:21:29 10° 100° (E) 6,693 11.5 23.7°
Sets 22:28:32 0° 84° (E) 7,165 11.5 22.7°
